Flight Track Log - Related Links

Times and Time Zones

All times are in EST time to prevent confusion due to time zone crossing. See the SWA3584 flight status page for this flight to view local times or setup timezone preferences in your user account.

Time Position Orientation Groundspeed Altitude Reporting Facility
EST Latitude Longitude Course Direction KTS MPH feet Rate Location/Type
Sun 08:26:26 PM 33.4333 -112.0333 239° Southwest 155 178 1,900  Level Phoenix TRACON
Sun 08:27:02 PM 33.4167 -112.0667 239° Southwest 172 198 3,100 2,000 Climbing Phoenix TRACON
Sun 08:27:56 PM 33.4000 -112.1167 248° West 224 258 4,900 2,600 Climbing Phoenix TRACON
Sun 08:29:02 PM 33.3500 -112.1667 220° Southwest 232 267 8,300 2,776 Climbing Phoenix TRACON
Sun 08:30:10 PM 33.3158 -112.1003 122° Southeast 257 296 11,100 2,446 Climbing Albuquerque Center
Sun 08:31:12 PM 33.3411 -112.0028 73° East 310 357 13,600 2,806 Climbing Albuquerque Center
Sun 08:32:14 PM 33.3686 -111.8964 73° East 336 387 16,900 2,780 Climbing Albuquerque Center
Sun 08:33:15 PM 33.3975 -111.7844 73° East 352 405 19,300 2,537 Climbing Albuquerque Center
Sun 08:34:17 PM 33.4361 -111.6350 73° East 389 448 22,100 2,371 Climbing Albuquerque Center
Sun 08:35:19 PM 33.4708 -111.5025 73° East 415 478 24,200 1,839 Climbing Albuquerque Center
Sun 08:36:21 PM 33.5042 -111.3600 74° East 445 512 25,900 1,610 Climbing Albuquerque Center
Sun 08:37:22 PM 33.5217 -111.2031 82° East 478 550 27,500 1,610 Climbing Albuquerque Center
Sun 08:38:24 PM 33.5428 -111.0414 81° East 493 567 29,200 1,512 Climbing Albuquerque Center
Sun 08:39:25 PM 33.6017 -110.8867 65° Northeast 507 583 30,600 1,512 Climbing Albuquerque Center
Sun 08:40:27 PM 33.6772 -110.7014 64° Northeast 515 593 32,300 1,452 Climbing Albuquerque Center
Sun 08:41:29 PM 33.7397 -110.5419 65° Northeast 524 603 33,600 1,220 Climbing Albuquerque Center
Sun 08:42:30 PM 33.8075 -110.3700 65° Northeast 535 616 34,800 1,171 Climbing Albuquerque Center
Sun 08:43:32 PM 33.8747 -110.2014 64° Northeast 548 631 36,000 1,073 Climbing Albuquerque Center
Sun 08:44:33 PM 33.9406 -110.0342 65° Northeast 553 636 37,000 585 Climbing Albuquerque Center
Sun 08:45:35 PM 34.0086 -109.8636 64° Northeast 559 643 37,200 629 Climbing Albuquerque Center
Sun 08:46:37 PM 34.0819 -109.6775 65° Northeast 562 647 38,300 878 Climbing Albuquerque Center
Sun 08:47:38 PM 34.1453 -109.5147 65° Northeast 562 647 39,000 341 Climbing Albuquerque Center
Sun 08:48:40 PM 34.2094 -109.3483 65° Northeast 566 651 39,000  Level Albuquerque Center
Sun 08:49:42 PM 34.2783 -109.1725 65° Northeast 573 659 39,000  Level Albuquerque Center
Sun 08:50:43 PM 34.3658 -108.9600 63° Northeast 576 663 39,000  Level Albuquerque Center
Sun 08:51:45 PM 34.4339 -108.7947 63° Northeast 576 663 39,000  Level Albuquerque Center
Sun 08:52:46 PM 34.5008 -108.6264 64° Northeast 577 664 39,000  Level Albuquerque Center
Sun 08:53:48 PM 34.5781 -108.4300 64° Northeast 578 665 39,000  Level Albuquerque Center
Sun 08:54:50 PM 34.6450 -108.2639 64° Northeast 576 663 39,000  Level Albuquerque Center
Sun 08:55:51 PM 34.7156 -108.0867 64° Northeast 578 665 39,000  Level Albuquerque Center
Sun 08:56:53 PM 34.7853 -107.9108 64° Northeast 580 667 39,000  Level Albuquerque Center
Sun 08:57:55 PM 34.8553 -107.7317 64° Northeast 583 671 39,000  Level Albuquerque Center
Sun 08:58:56 PM 34.9378 -107.5175 65° Northeast 583 671 39,000  Level Albuquerque Center
Sun 08:59:58 PM 35.0081 -107.3369 65° Northeast 583 671 39,000  Level Albuquerque Center
Sun 09:00:59 PM 35.0764 -107.1592 65° Northeast 580 667 39,000  Level Albuquerque Center
Sun 09:02:01 PM 35.1503 -106.9661 65° Northeast 580 667 39,000  Level Albuquerque Center
Sun 09:03:03 PM 35.2183 -106.7856 65° Northeast 583 671 39,000  Level Albuquerque Center
Sun 09:04:04 PM 35.2867 -106.6036 65° Northeast 585 673 39,000  Level Albuquerque Center
Sun 09:05:06 PM 35.3544 -106.4253 65° Northeast 586 674 39,000  Level Albuquerque Center
Sun 09:06:07 PM 35.4281 -106.2256 66° East 586 674 39,000  Level Albuquerque Center
Sun 09:07:09 PM 35.4933 -106.0600 64° Northeast 596 686 39,000  Level Albuquerque Center
Sun 09:08:11 PM 35.5681 -105.8503 66° East 595 685 39,000  Level Albuquerque Center
Sun 09:09:12 PM 35.6397 -105.6583 65° Northeast 593 682 39,000  Level Albuquerque Center
Sun 09:10:14 PM 35.7083 -105.4733 65° Northeast 590 679 39,000  Level Albuquerque Center
Sun 09:11:15 PM 35.7750 -105.2872 66° East 587 676 39,000  Level Albuquerque Center
Sun 09:12:17 PM 35.8408 -105.1025 66° East 584 672 39,000  Level Albuquerque Center
Sun 09:13:19 PM 35.9081 -104.9189 66° East 582 670 39,000  Level Albuquerque Center
Sun 09:14:20 PM 35.9728 -104.7358 66° East 577 664 39,000  Level Albuquerque Center
Sun 09:15:22 PM 36.0383 -104.5522 66° East 577 664 39,000  Level Albuquerque Center
Sun 09:16:23 PM 36.1022 -104.3703 66° East 572 658 39,000  Level Albuquerque Center
Sun 09:17:25 PM 36.1647 -104.1917 67° East 564 649 39,000  Level Albuquerque Center
Sun 09:18:26 PM 36.2281 -104.0131 66° East 562 647 39,000  Level Albuquerque Center
Sun 09:19:28 PM 36.2903 -103.8356 66° East 558 642 39,000  Level Albuquerque Center
Sun 09:20:30 PM 36.3511 -103.6581 67° East 555 639 39,000  Level Albuquerque Center
Sun 09:21:31 PM 36.4111 -103.4814 67° East 552 635 39,000  Level Albuquerque Center
Sun 09:22:33 PM 36.4811 -103.2747 67° East 550 633 39,000  Level Albuquerque Center
Sun 09:23:35 PM 36.5408 -103.0992 67° East 548 631 39,000  Level Albuquerque Center
Sun 09:24:36 PM 36.5997 -102.9239 67° East 545 627 39,000  Level Albuquerque Center
Sun 09:25:38 PM 36.6586 -102.7489 67° East 545 627 39,000  Level Albuquerque Center
Sun 09:26:40 PM 36.7131 -102.5833 68° East 543 625 39,000  Level Albuquerque Center
Sun 09:27:41 PM 36.7708 -102.4047 68° East 549 632 39,000  Level Albuquerque Center
Sun 09:28:43 PM 36.8269 -102.2306 68° East 543 625 39,000  Level Albuquerque Center
Sun 09:29:44 PM 36.8897 -102.0506 66° East 536 617 39,000  Level Albuquerque Center
Sun 09:30:46 PM 36.9514 -101.8581 68° East 536 617 39,000  Level Albuquerque Center
Sun 09:31:47 PM 37.0014 -101.6922 69° East 534 615 39,000  Level Albuquerque Center
Sun 09:33:10 PM 37.0814 -101.4486 68° East 530 610 39,000  Level Kansas City Center
Sun 09:34:13 PM 37.1331 -101.2858 68° East 528 608 39,000  Level Kansas City Center
Sun 09:35:14 PM 37.1928 -101.0967 68° East 526 605 39,000  Level Kansas City Center
Sun 09:36:15 PM 37.2436 -100.9344 68° East 526 605 39,000  Level Kansas City Center
Sun 09:37:18 PM 37.3025 -100.7478 68° East 522 601 39,000  Level Kansas City Center
Sun 09:38:19 PM 37.3517 -100.5883 69° East 520 598 39,000  Level Kansas City Center
Sun 09:39:20 PM 37.4081 -100.4019 69° East 516 594 39,000  Level Kansas City Center
Sun 09:40:24 PM 37.4572 -100.2417 69° East 517 595 39,000  Level Kansas City Center
Sun 09:41:24 PM 37.5150 -100.0517 69° East 521 600 39,000  Level Kansas City Center
Sun 09:42:26 PM 37.5658 -99.8861 69° East 527 606 39,000  Level Kansas City Center
Sun 09:43:29 PM 37.6258 -99.6919 69° East 532 612 39,000  Level Kansas City Center
Sun 09:44:30 PM 37.6747 -99.5264 69° East 530 610 39,000  Level Kansas City Center
Sun 09:45:32 PM 37.7253 -99.3511 70° East 530 610 39,000  Level Kansas City Center
Sun 09:46:33 PM 37.7769 -99.1781 69° East 527 606 39,000  Level Kansas City Center
Sun 09:47:37 PM 37.8275 -99.0044 70° East 526 605 39,000  Level Kansas City Center
Sun 09:48:37 PM 37.8775 -98.8311 70° East 525 604 39,000  Level Kansas City Center
Sun 09:49:38 PM 37.9272 -98.6569 70° East 526 605 39,000  Level Kansas City Center
Sun 09:50:42 PM 37.9878 -98.4469 70° East 527 606 39,000  Level Kansas City Center
Sun 09:51:44 PM 38.0381 -98.2722 70° East 526 605 39,000  Level Kansas City Center
Sun 09:52:46 PM 38.0903 -98.0867 70° East 524 603 39,000  Level Kansas City Center
Sun 09:53:46 PM 38.1375 -97.9114 71° East 524 603 39,000  Level Kansas City Center
Sun 09:54:48 PM 38.1864 -97.7411 70° East 523 602 39,000  Level Kansas City Center
Sun 09:55:48 PM 38.2353 -97.5658 70° East 523 602 39,000  Level Kansas City Center
Sun 09:56:52 PM 38.2833 -97.3917 71° East 520 598 39,000 -238 Level Kansas City Center
Sun 09:57:54 PM 38.3303 -97.2175 71° East 519 597 38,500 -726 Descending Kansas City Center
Sun 09:58:56 PM 38.3789 -97.0439 70° East 520 598 37,500 -919 Descending Kansas City Center
Sun 09:59:58 PM 38.4250 -96.8736 71° East 511 588 36,600 -984 Descending Kansas City Center
Sun 10:00:58 PM 38.4775 -96.6789 71° East 497 572 35,500 -1,050 Descending Kansas City Center
Sun 10:01:58 PM 38.5342 -96.5397 62° Northeast 461 531 34,500 -976 Descending Kansas City Center
Sun 10:03:01 PM 38.5928 -96.3769 65° Northeast 453 521 33,500 -1,839 Descending Kansas City Center
Sun 10:04:02 PM 38.6450 -96.2364 65° Northeast 457 526 30,700 -2,496 Descending Kansas City Center
Sun 10:05:06 PM 38.6986 -96.0972 64° Northeast 458 527 28,300 -2,226 Descending Kansas City Center
Sun 10:06:06 PM 38.7275 -95.9183 78° East 458 527 26,100 -2,244 Descending Kansas City Center
Sun 10:07:09 PM 38.7500 -95.7667 79° East 457 526 23,700 -2,419 Descending Kansas City Center
Sun 10:08:10 PM 38.7775 -95.5997 78° East 432 497 21,100 -2,361 Descending Kansas City Center
Sun 10:09:11 PM 38.7992 -95.4611 79° East 420 483 18,900 -2,311 Descending Kansas City Center
Sun 10:10:12 PM 38.8658 -95.3356 56° Northeast 386 444 16,400 -2,177 Descending Kansas City Center
Sun 10:11:15 PM 38.9317 -95.2428 48° Northeast 371 427 14,400 -2,081 Descending Kansas City Center
Sun 10:12:16 PM 39.0056 -95.1364 48° Northeast 361 415 12,100 -1,525 Descending Kansas City Center
Sun 10:13:17 PM 39.0683 -95.0467 48° Northeast 357 411 11,300 -960 Descending Kansas City Center
Sun 10:14:21 PM 39.1411 -94.9436 48° Northeast 351 404 10,100 -1,210 Descending Kansas City Center
Sun 10:15:21 PM 39.2061 -94.8869 34° Northeast 305 351 8,800 -1,350 Descending Kansas City Center
Sun 10:16:21 PM 39.2914 -94.8608 13° North 284 327 7,400 -1,306 Descending Kansas City Center
Sun 10:17:25 PM 39.3617 -94.8386 14° North 274 315 6,100 -1,210 Descending Kansas City Center
Sun 10:18:25 PM 39.4250 -94.8086 20° North 262 302 4,900 -1,091 Descending Kansas City Center
Sun 10:19:26 PM 39.4194 -94.7222 95° East 217 250 3,900 -1,210 Descending Kansas City Center
Sun 10:20:29 PM 39.3853 -94.7008 154° Southeast 149 171 2,400 -1,152 Descending Kansas City Center
Sun 10:21:31 PM 39.3431 -94.7147 194° South 137 158 1,500 -683 Descending Kansas City Center
Sun 10:22:32 PM 39.3111 -94.7236 192° South 130 150 1,000 -492 Descending Kansas City Center

Login

Don't have an account? Register now (free) for customized features, flight alerts, and more!